| time (UTC) | temp F | wind direction | speed MPH | gust MPH | rain 1hr in | rain 24hr in | rain mn in | humidity % | barometer mb |
| 20260906233624 | 87 | 262 | 0.0 | 1.0 | 0.00 | 0.00 | 0.00 | 54 | 1013.8 |
| 20260906232724 | 88 | 315 | 1.0 | 4.0 | 0.00 | 0.00 | 0.00 | 53 | 1013.8 |
| 20260906231824 | 88 | 31 | 0.0 | 3.0 | 0.00 | 0.00 | 0.00 | 55 | 1013.6 |
| 20260906230924 | 88 | 330 | 1.0 | 4.0 | 0.00 | 0.00 | 0.00 | 54 | 1013.5 |
| 20260906230024 | 88 | 325 | 1.0 | 3.0 | 0.00 | 0.00 | 0.00 | 53 | 1013.4 |
| 20260906225424 | 89 | 329 | 0.0 | 3.0 | 0.00 | 0.00 | 0.00 | 55 | 1013.4 |
| 20260906224524 | 89 | 282 | 0.0 | 2.0 | 0.00 | 0.00 | 0.00 | 54 | 1013.2 |
| 20260906223625 | 89 | 326 | 1.0 | 4.0 | 0.00 | 0.00 | 0.00 | 55 | 1013.2 |
| 20260906222703 | 90 | 219 | 0.0 | 2.0 | 0.00 | 0.00 | 0.00 | 54 | 1013.3 |
| 20260906221803 | 90 | 191 | 0.0 | 2.0 | 0.00 | 0.00 | 0.00 | 57 | 1013.5 |
| 20260906220903 | 89 | 341 | 1.0 | 5.0 | 0.00 | 0.00 | 0.00 | 56 | 1013.5 |
| 20260906220003 | 90 | 335 | 1.0 | 4.0 | 0.00 | 0.00 | 0.00 | 56 | 1013.6 |
| 20260906215403 | 91 | 310 | 0.0 | 2.0 | 0.00 | 0.00 | 0.00 | 56 | 1013.7 |
| 20260906214503 | 90 | 317 | 1.0 | 5.0 | 0.00 | 0.00 | 0.00 | 58 | 1013.9 |
| 20260906213603 | 90 | 331 | 0.0 | 5.0 | 0.00 | 0.00 | 0.00 | 58 | 1014.0 |
| 20260906212703 | 90 | 154 | 0.0 | 3.0 | 0.00 | 0.00 | 0.00 | 59 | 1014.0 |
| 20260906211803 | 89 | 335 | 2.0 | 5.0 | 0.00 | 0.00 | 0.00 | 59 | 1014.1 |
| 20260906210903 | 89 | 332 | 1.0 | 7.0 | 0.00 | 0.00 | 0.00 | 59 | 1014.3 |
| 20260906210004 | 90 | 328 | 1.0 | 6.0 | 0.00 | 0.00 | 0.00 | 59 | 1014.3 |
| 20260906205403 | 90 | 162 | 1.0 | 4.0 | 0.00 | 0.00 | 0.00 | 58 | 1014.4 |
| 20260906204503 | 90 | 337 | 1.0 | 6.0 | 0.00 | 0.00 | 0.00 | 59 | 1014.4 |
| 20260906203603 | 91 | 99 | 0.0 | 5.0 | 0.00 | 0.00 | 0.00 | 56 | 1014.6 |
| 20260906202703 | 90 | 156 | 1.0 | 7.0 | 0.00 | 0.00 | 0.00 | 58 | 1014.4 |
| 20260906201803 | 89 | 325 | 1.0 | 6.0 | 0.00 | 0.00 | 0.00 | 60 | 1014.6 |
| 20260906200903 | 89 | 329 | 1.0 | 6.0 | 0.00 | 0.00 | 0.00 | 60 | 1014.6 |
| 20260906200004 | 88 | 340 | 1.0 | 8.0 | 0.00 | 0.00 | 0.00 | 61 | 1014.8 |
| 20260906195403 | 87 | 332 | 2.0 | 8.0 | 0.00 | 0.00 | 0.00 | 62 | 1014.7 |
| 20260906194504 | 87 | 329 | 2.0 | 6.0 | 0.00 | 0.00 | 0.00 | 64 | 1014.9 |
| 20260906193603 | 88 | 329 | 1.0 | 8.0 | 0.00 | 0.00 | 0.00 | 63 | 1015.1 |
| 20260906192703 | 87 | 338 | 2.0 | 8.0 | 0.00 | 0.00 | 0.00 | 64 | 1015.1 |
| 20260906191803 | 88 | 331 | 1.0 | 4.0 | 0.00 | 0.00 | 0.00 | 65 | 1015.2 |
| 20260906190903 | 88 | 330 | 1.0 | 4.0 | 0.00 | 0.00 | 0.00 | 64 | 1015.3 |
| 20260906190003 | 88 | 329 | 1.0 | 9.0 | 0.00 | 0.00 | 0.00 | 63 | 1015.4 |
| 20260906185403 | 88 | 225 | 0.0 | 2.0 | 0.00 | 0.00 | 0.00 | 64 | 1015.6 |
| 20260906184503 | 88 | 161 | 0.0 | 2.0 | 0.00 | 0.00 | 0.00 | 65 | 1015.8 |
| 20260906183603 | 87 | 185 | 0.0 | 2.0 | 0.00 | 0.00 | 0.00 | 66 | 1016.0 |
| 20260906182703 | 85 | 297 | 1.0 | 2.0 | 0.00 | 0.00 | 0.00 | 71 | 1016.1 |
| 20260906181804 | 84 | 330 | 2.0 | 10.0 | 0.00 | 0.00 | 0.00 | 73 | 1016.1 |
| 20260906180904 | 83 | 334 | 4.0 | 10.0 | 0.00 | 0.00 | 0.00 | 73 | 1016.2 |
| 20260906180003 | 84 | 335 | 2.0 | 8.0 | 0.00 | 0.00 | 0.00 | 73 | 1016.3 |
| 20260906175403 | 84 | 336 | 1.0 | 5.0 | 0.00 | 0.00 | 0.00 | 75 | 1016.4 |
| 20260906174503 | 83 | 335 | 2.0 | 8.0 | 0.00 | 0.00 | 0.00 | 75 | 1016.5 |
| 20260906173603 | 82 | 338 | 1.0 | 6.0 | 0.00 | 0.00 | 0.00 | 76 | 1016.6 |
| 20260906172724 | 81 | 333 | 2.0 | 9.0 | 0.00 | 0.00 | 0.00 | 78 | 1016.7 |
| 20260906171824 | 82 | 330 | 1.0 | 5.0 | 0.00 | 0.00 | 0.00 | 78 | 1016.9 |
| 20260906170924 | 82 | 324 | 1.0 | 4.0 | 0.00 | 0.00 | 0.00 | 77 | 1017.0 |
| 20260906170024 | 80 | 332 | 2.0 | 6.0 | 0.00 | 0.00 | 0.00 | 79 | 1016.9 |
| 20260906165425 | 80 | 333 | 1.0 | 6.0 | 0.00 | 0.00 | 0.00 | 79 | 1016.9 |
| 20260906164503 | 80 | 330 | 2.0 | 8.0 | 0.00 | 0.00 | 0.00 | 81 | 1017.0 |
| 20260906163603 | 80 | 333 | 1.0 | 5.0 | 0.00 | 0.00 | 0.00 | 81 | 1017.2 |
| 20260906162703 | 80 | 332 | 2.0 | 5.0 | 0.00 | 0.00 | 0.00 | 79 | 1017.4 |
| 20260906161803 | 80 | 337 | 1.0 | 8.0 | 0.00 | 0.00 | 0.00 | 80 | 1017.3 |
| 20260906160903 | 80 | 329 | 1.0 | 6.0 | 0.00 | 0.00 | 0.00 | 80 | 1017.4 |
| 20260906160003 | 79 | 333 | 1.0 | 5.0 | 0.00 | 0.00 | 0.00 | 79 | 1017.2 |
| 20260906155403 | 79 | 332 | 2.0 | 6.0 | 0.00 | 0.00 | 0.00 | 80 | 1017.1 |
| 20260906154503 | 79 | 335 | 1.0 | 5.0 | 0.00 | 0.00 | 0.00 | 80 | 1017.0 |
| 20260906153603 | 79 | 327 | 1.0 | 5.0 | 0.00 | 0.00 | 0.00 | 80 | 1016.7 |
| 20260906152705 | 79 | 334 | 2.0 | 9.0 | 0.00 | 0.00 | 0.00 | 80 | 1016.6 |
| 20260906151803 | 79 | 337 | 1.0 | 9.0 | 0.00 | 0.00 | 0.00 | 80 | 1016.5 |
| 20260906150903 | 78 | 334 | 1.0 | 8.0 | 0.00 | 0.00 | 0.00 | 81 | 1016.4 |
| 20260906150003 | 78 | 329 | 1.0 | 6.0 | 0.00 | 0.00 | 0.00 | 81 | 1016.2 |
| 20260906145403 | 78 | 329 | 1.0 | 5.0 | 0.00 | 0.00 | 0.00 | 82 | 1016.2 |
| 20260906144503 | 77 | 330 | 2.0 | 5.0 | 0.00 | 0.00 | 0.00 | 83 | 1016.1 |
| 20260906143603 | 77 | 334 | 1.0 | 6.0 | 0.00 | 0.00 | 0.00 | 84 | 1016.2 |
| 20260906142703 | 77 | 329 | 1.0 | 3.0 | 0.00 | 0.00 | 0.00 | 84 | 1016.2 |
| 20260906141803 | 77 | 332 | 1.0 | 4.0 | 0.00 | 0.00 | 0.00 | 83 | 1016.2 |
| 20260906140903 | 77 | 328 | 0.0 | 4.0 | 0.00 | 0.00 | 0.00 | 83 | 1016.0 |
| 20260906140003 | 77 | 328 | 0.0 | 1.0 | 0.00 | 0.00 | 0.00 | 84 | 1016.0 |
| 20260906135424 | 77 | 331 | 0.0 | 2.0 | 0.00 | 0.00 | 0.00 | 85 | 1016.0 |
| 20260906134524 | 76 | 329 | 0.0 | 2.0 | 0.00 | 0.00 | 0.00 | 86 | 1016.0 |
| 20260906133624 | 76 | 333 | 0.0 | 3.0 | 0.00 | 0.00 | 0.00 | 87 | 1015.9 |
| 20260906132724 | 76 | 331 | 0.0 | 4.0 | 0.00 | 0.00 | 0.00 | 87 | 1016.0 |
| 20260906131824 | 76 | 323 | 0.0 | 2.0 | 0.00 | 0.00 | 0.00 | 87 | 1015.9 |
| 20260906130903 | 75 | 313 | 0.0 | 2.0 | 0.00 | 0.00 | 0.00 | 88 | 1016.0 |
| 20260906130003 | 75 | 332 | 1.0 | 4.0 | 0.00 | 0.00 | 0.00 | 88 | 1016.0 |
| 20260906125403 | 75 | 331 | 1.0 | 4.0 | 0.00 | 0.00 | 0.00 | 87 | 1016.0 |
| 20260906124503 | 75 | 338 | 0.0 | 3.0 | 0.00 | 0.00 | 0.00 | 88 | 1015.8 |
| 20260906123603 | 75 | 328 | 0.0 | 3.0 | 0.00 | 0.00 | 0.00 | 88 | 1015.7 |
| 20260906122703 | 75 | 327 | 0.0 | 1.0 | 0.00 | 0.00 | 0.00 | 88 | 1015.6 |
| 20260906121803 | 75 | 311 | 0.0 | 1.0 | 0.00 | 0.00 | 0.00 | 88 | 1015.6 |
| 20260906120903 | 75 | 329 | 0.0 | 1.0 | 0.00 | 0.00 | 0.00 | 88 | 1015.5 |
| 20260906120003 | 75 | 0 | 0.0 | 0.0 | 0.00 | 0.00 | 0.00 | 88 | 1015.4 |
| 20260906115403 | 75 | 0 | 0.0 | 0.0 | 0.00 | 0.00 | 0.00 | 87 | 1015.3 |
| 20260906114503 | 76 | 0 | 0.0 | 0.0 | 0.00 | 0.00 | 0.00 | 87 | 1015.4 |
| 20260906113603 | 76 | 0 | 0.0 | 0.0 | 0.00 | 0.00 | 0.00 | 87 | 1015.2 |
| 20260906112703 | 76 | 329 | 0.0 | 1.0 | 0.00 | 0.00 | 0.00 | 87 | 1015.1 |
| 20260906111803 | 76 | 329 | 0.0 | 1.0 | 0.00 | 0.00 | 0.00 | 86 | 1015.1 |
| 20260906110903 | 76 | 0 | 0.0 | 0.0 | 0.00 | 0.00 | 0.00 | 86 | 1015.0 |
| 20260906110003 | 76 | 0 | 0.0 | 1.0 | 0.00 | 0.00 | 0.00 | 86 | 1014.8 |
| 20260906105403 | 77 | 0 | 0.0 | 1.0 | 0.00 | 0.00 | 0.00 | 86 | 1014.9 |
| 20260906104503 | 77 | 325 | 0.0 | 1.0 | 0.00 | 0.00 | 0.00 | 86 | 1014.9 |
| 20260906103603 | 77 | 326 | 0.0 | 1.0 | 0.00 | 0.00 | 0.00 | 86 | 1014.8 |
| 20260906102703 | 77 | 323 | 0.0 | 1.0 | 0.00 | 0.00 | 0.00 | 86 | 1014.7 |
| 20260906101803 | 78 | 0 | 0.0 | 0.0 | 0.00 | 0.00 | 0.00 | 87 | 1014.7 |
| 20260906100903 | 78 | 333 | 0.0 | 1.0 | 0.00 | 0.00 | 0.00 | 86 | 1014.6 |
| 20260906100003 | 78 | 0 | 0.0 | 0.0 | 0.00 | 0.00 | 0.00 | 86 | 1014.5 |
| 20260906095403 | 78 | 0 | 0.0 | 0.0 | 0.00 | 0.00 | 0.00 | 86 | 1014.4 |
| 20260906094504 | 78 | 320 | 0.0 | 1.0 | 0.00 | 0.00 | 0.00 | 85 | 1014.5 |
| 20260906093603 | 78 | 0 | 0.0 | 0.0 | 0.00 | 0.00 | 0.00 | 85 | 1014.3 |
| 20260906092703 | 79 | 328 | 0.0 | 1.0 | 0.00 | 0.00 | 0.00 | 84 | 1014.3 |
| 20260906091803 | 79 | 333 | 0.0 | 2.0 | 0.00 | 0.00 | 0.00 | 85 | 1014.2 |
| 20260906090903 | 79 | 0 | 0.0 | 0.0 | 0.00 | 0.00 | 0.00 | 85 | 1014.1 |
| 20260906090004 | 79 | 321 | 0.0 | 1.0 | 0.00 | 0.00 | 0.00 | 85 | 1014.1 |
| 20260906085424 | 79 | 337 | 0.0 | 1.0 | 0.00 | 0.00 | 0.00 | 85 | 1014.1 |
| 20260906084524 | 80 | 325 | 0.0 | 1.0 | 0.00 | 0.00 | 0.00 | 85 | 1014.0 |
| 20260906083624 | 80 | 338 | 0.0 | 1.0 | 0.00 | 0.00 | 0.00 | 85 | 1014.0 |
| 20260906082724 | 80 | 327 | 0.0 | 1.0 | 0.00 | 0.00 | 0.00 | 85 | 1013.9 |
| 20260906081824 | 81 | 0 | 0.0 | 0.0 | 0.00 | 0.00 | 0.00 | 84 | 1013.9 |
| 20260906080924 | 81 | 297 | 0.0 | 1.0 | 0.00 | 0.00 | 0.00 | 84 | 1013.9 |
| 20260906080024 | 81 | 262 | 0.0 | 2.0 | 0.00 | 0.00 | 0.00 | 84 | 1013.8 |
| 20260906075424 | 81 | 330 | 0.0 | 2.0 | 0.00 | 0.00 | 0.00 | 84 | 1013.9 |
| 20260906074524 | 81 | 276 | 0.0 | 1.0 | 0.00 | 0.00 | 0.00 | 84 | 1013.9 |
| 20260906073624 | 82 | 0 | 0.0 | 1.0 | 0.00 | 0.00 | 0.00 | 84 | 1014.0 |
| 20260906072703 | 82 | 0 | 0.0 | 1.0 | 0.00 | 0.00 | 0.00 | 84 | 1013.9 |
| 20260906071803 | 82 | 0 | 0.0 | 1.0 | 0.00 | 0.00 | 0.00 | 83 | 1013.8 |
| 20260906070903 | 82 | 0 | 0.0 | 1.0 | 0.00 | 0.00 | 0.00 | 83 | 1013.7 |
| 20260906070003 | 82 | 0 | 0.0 | 1.0 | 0.00 | 0.00 | 0.00 | 83 | 1013.8 |
| 20260906065403 | 83 | 0 | 0.0 | 0.0 | 0.00 | 0.00 | 0.00 | 82 | 1013.9 |
| 20260906064504 | 83 | 0 | 0.0 | 0.0 | 0.00 | 0.00 | 0.00 | 81 | 1013.8 |
| 20260906063603 | 84 | 0 | 0.0 | 0.0 | 0.00 | 0.00 | 0.00 | 80 | 1013.9 |
| 20260906062703 | 84 | 184 | 0.0 | 2.0 | 0.00 | 0.00 | 0.00 | 80 | 1013.9 |
| 20260906061803 | 84 | 284 | 0.0 | 3.0 | 0.00 | 0.00 | 0.00 | 79 | 1013.8 |
| 20260906060903 | 85 | 330 | 0.0 | 3.0 | 0.00 | 0.00 | 0.00 | 79 | 1013.8 |
| 20260906060003 | 85 | 288 | 0.0 | 1.0 | 0.00 | 0.00 | 0.00 | 78 | 1013.9 |
| 20260906055403 | 85 | 323 | 0.0 | 1.0 | 0.00 | 0.00 | 0.00 | 78 | 1013.9 |
| 20260906054503 | 85 | 259 | 0.0 | 1.0 | 0.00 | 0.00 | 0.00 | 78 | 1013.9 |
| 20260906053603 | 85 | 259 | 0.0 | 1.0 | 0.00 | 0.00 | 0.00 | 77 | 1013.8 |
| 20260906052703 | 86 | 0 | 0.0 | 0.0 | 0.00 | 0.00 | 0.00 | 76 | 1013.8 |
| 20260906051803 | 86 | 0 | 0.0 | 0.0 | 0.00 | 0.00 | 0.00 | 76 | 1013.8 |
| 20260906050903 | 86 | 0 | 0.0 | 1.0 | 0.00 | 0.00 | 0.00 | 75 | 1013.9 |
| 20260906050004 | 86 | 221 | 0.0 | 1.0 | 0.00 | 0.00 | 0.00 | 75 | 1013.7 |
| 20260906045403 | 86 | 225 | 0.0 | 1.0 | 0.00 | 0.00 | 0.00 | 75 | 1013.6 |
| 20260906044503 | 86 | 0 | 0.0 | 0.0 | 0.00 | 0.00 | 0.00 | 75 | 1013.5 |
| 20260906043603 | 86 | 278 | 0.0 | 1.0 | 0.00 | 0.00 | 0.00 | 74 | 1013.5 |
| 20260906042703 | 86 | 0 | 0.0 | 0.0 | 0.00 | 0.00 | 0.00 | 73 | 1013.4 |
| 20260906041803 | 87 | 237 | 0.0 | 1.0 | 0.00 | 0.00 | 0.00 | 73 | 1013.4 |
| 20260906040903 | 87 | 0 | 0.0 | 0.0 | 0.00 | 0.00 | 0.00 | 71 | 1013.3 |
| 20260906040004 | 87 | 0 | 0.0 | 0.0 | 0.00 | 0.00 | 0.00 | 71 | 1013.3 |
| 20260906035403 | 87 | 0 | 0.0 | 1.0 | 0.00 | 0.00 | 0.00 | 70 | 1013.3 |
| 20260906034503 | 87 | 0 | 0.0 | 0.0 | 0.00 | 0.00 | 0.00 | 69 | 1013.2 |
| 20260906033603 | 87 | 211 | 0.0 | 1.0 | 0.00 | 0.00 | 0.00 | 70 | 1013.2 |
| 20260906032703 | 87 | 0 | 0.0 | 0.0 | 0.00 | 0.00 | 0.00 | 70 | 1013.2 |
| 20260906031803 | 87 | 0 | 0.0 | 1.0 | 0.00 | 0.00 | 0.00 | 68 | 1012.9 |
| 20260906030903 | 87 | 0 | 0.0 | 1.0 | 0.00 | 0.00 | 0.00 | 69 | 1012.9 |
| 20260906030003 | 87 | 0 | 0.0 | 0.0 | 0.00 | 0.00 | 0.00 | 71 | 1012.9 |
| 20260906025403 | 87 | 0 | 0.0 | 0.0 | 0.00 | 0.00 | 0.00 | 68 | 1012.8 |
| 20260906024503 | 88 | 0 | 0.0 | 0.0 | 0.00 | 0.00 | 0.00 | 68 | 1012.8 |
| 20260906023603 | 88 | 0 | 0.0 | 0.0 | 0.00 | 0.00 | 0.00 | 68 | 1012.6 |
| 20260906022703 | 88 | 0 | 0.0 | 0.0 | 0.00 | 0.00 | 0.00 | 67 | 1012.4 |
| 20260906021803 | 88 | 0 | 0.0 | 0.0 | 0.00 | 0.00 | 0.00 | 67 | 1012.3 |
| 20260906020903 | 89 | 0 | 0.0 | 0.0 | 0.00 | 0.00 | 0.00 | 66 | 1012.2 |
| 20260906020003 | 89 | 0 | 0.0 | 0.0 | 0.00 | 0.00 | 0.00 | 66 | 1012.1 |
| 20260906015403 | 89 | 0 | 0.0 | 0.0 | 0.00 | 0.00 | 0.00 | 65 | 1012.0 |
| 20260906014503 | 90 | 0 | 0.0 | 0.0 | 0.00 | 0.00 | 0.00 | 64 | 1011.9 |
| 20260906013603 | 90 | 0 | 0.0 | 0.0 | 0.00 | 0.00 | 0.00 | 63 | 1011.8 |
| 20260906012703 | 90 | 0 | 0.0 | 0.0 | 0.00 | 0.00 | 0.00 | 62 | 1011.7 |
| 20260906011803 | 91 | 0 | 0.0 | 0.0 | 0.00 | 0.00 | 0.00 | 62 | 1011.6 |
| 20260906010903 | 91 | 0 | 0.0 | 0.0 | 0.00 | 0.00 | 0.00 | 60 | 1011.5 |
| 20260906010003 | 92 | 0 | 0.0 | 0.0 | 0.00 | 0.00 | 0.00 | 61 | 1011.4 |
| 20260906005403 | 92 | 0 | 0.0 | 0.0 | 0.00 | 0.00 | 0.00 | 59 | 1011.3 |
| 20260906004503 | 92 | 319 | 0.0 | 2.0 | 0.00 | 0.00 | 0.00 | 57 | 1011.3 |
| 20260906003603 | 93 | 331 | 0.0 | 1.0 | 0.00 | 0.00 | 0.00 | 57 | 1011.3 |
| 20260906002703 | 93 | 329 | 0.0 | 1.0 | 0.00 | 0.00 | 0.00 | 56 | 1011.4 |
| 20260906001803 | 94 | 0 | 0.0 | 0.0 | 0.00 | 0.00 | 0.00 | 55 | 1011.3 |
| 20260906000903 | 94 | 0 | 0.0 | 1.0 | 0.00 | 0.00 | 0.00 | 54 | 1011.3 |
| 20260906000003 | 94 | 0 | 0.0 | 0.0 | 0.00 | 0.00 | 0.00 | 53 | 1011.4 |
| 20260905235403 | 95 | 322 | 0.0 | 1.0 | 0.00 | 0.00 | 0.00 | 53 | 1011.4 |
| 20260905234503 | 95 | 323 | 0.0 | 1.0 | 0.00 | 0.00 | 0.00 | 52 | 1011.4 |